Preview of NWS' New Version of Forecast
This preview is not operational and should not be used for support decisions.

Regional Weather Roundup (RWR)

Issued by National Weather Service (NWS)

                            
000
ASPQ40 PGUM 230410
RWRPQ 
WEATHER ROUNDUP FOR THE MARIANAS AND MICRONESIA
NATIONAL WEATHER SERVICE TIYAN GU
200 PM CHST SAT FEB 23 2019

GUZ001>004-230500-
MARIANA ISLANDS-
  
CITY           SKY/WX    TMP DP  RH WIND       PRES   REMARKS
GUAM AIRPORT   RAIN      79 N/A N/A E32G46    29.64F                  
ANDERSEN AFB   LGT RAIN  77  75  94 E26G41    29.66F FOG              
ROTA AIRPORT   CLOUDY    79  73  83 E23       30.00F                  
TINIAN AP      PTSUNNY  N/A N/A N/A E18       29.71F                  
SAIPAN AP      CLOUDY    82  73  74 E23G33    29.74F                  

$$

PMZ161-230500-
REPUBLIC OF PALAU-
  
CITY           SKY/WX    TMP DP  RH WIND       PRES   REMARKS
KOROR AP       PTSUNNY   84  73  70 N8G15     29.82F HX  91           
KOROR WSO      NOT AVBL                                               

$$

PMZ171>174-230500-
FEDERATED STATES OF MICRONESIA-
  
CITY           SKY/WX    TMP DP  RH WIND       PRES   REMARKS
YAP AIRPORT    PTSUNNY   86  77  74 NW14G22   29.77R HX  97           
CHUUK AP       CLOUDY    88  79  74 SE8       29.75F HX 102           
POHNPEI AP     CLOUDY    88  77  70 SE8       29.78F HX 100           
POHNPEI WSO    CLOUDY    86  79  79 NE7       29.81F HX  99           
KOSRAE AP      NOT AVBL                                               

$$

PMZ181-230500-
REPUBLIC OF THE MARSHALL ISLANDS-
  
CITY           SKY/WX    TMP DP  RH WIND       PRES   REMARKS
KWAJALEIN AP   MOSUNNY   84  70  61 NE14      29.80S                  
MAJURO AP      NOT AVBL                                               
MAJURO WSO     PTSUNNY   82  66  57 E16       29.76F                  

$$